Time,TemperatureF,DewpointF,PressureIn,WindDirection,WindDirectionDegrees,WindSpeedMPH,WindSpeedGustMPH,Humidity,HourlyPrecipIn,Conditions,Clouds,dailyrainin,SoftwareType,DateUTC
2013-03-19 00:00:00,48.7,47.3,29.88,ENE,69,0.0,1.0,95,0.06,,---,0.01,VWS V14.00,2013-03-19 04:00:00,
2013-03-19 00:05:00,48.7,47.3,29.88,ENE,70,1.0,2.0,95,0.06,,---,0.01,VWS V14.00,2013-03-19 04:05:00,
2013-03-19 00:10:00,48.7,47.3,29.88,ENE,71,0.0,2.0,95,0.06,,---,0.01,VWS V14.00,2013-03-19 04:10:00,
2013-03-19 00:15:00,48.7,47.3,29.87,ENE,71,0.0,2.0,95,0.07,,---,0.02,VWS V14.00,2013-03-19 04:15:00,
2013-03-19 00:20:00,48.8,47.4,29.87,ENE,71,0.0,3.0,95,0.07,,---,0.02,VWS V14.00,2013-03-19 04:20:00,
2013-03-19 00:25:00,48.8,47.4,29.88,ENE,71,0.0,3.0,95,0.08,,---,0.03,VWS V14.00,2013-03-19 04:25:00,
2013-03-19 00:30:00,48.8,47.4,29.88,ENE,71,0.0,0.0,95,0.06,,---,0.03,VWS V14.00,2013-03-19 04:30:00,
2013-03-19 00:35:00,48.8,47.4,29.87,ENE,71,0.0,0.0,95,0.06,,---,0.03,VWS V14.00,2013-03-19 04:35:00,
2013-03-19 00:40:00,48.8,47.4,29.87,ENE,71,0.0,1.0,95,0.07,,---,0.04,VWS V14.00,2013-03-19 04:40:00,
2013-03-19 00:45:00,48.9,47.5,29.87,ENE,71,0.0,1.0,95,0.07,,---,0.04,VWS V14.00,2013-03-19 04:45:00,
2013-03-19 00:50:00,49.0,47.6,29.87,ENE,71,1.0,2.0,95,0.07,,---,0.04,VWS V14.00,2013-03-19 04:50:00,
2013-03-19 00:55:00,49.0,47.6,29.87,ENE,71,0.0,2.0,95,0.08,,---,0.05,VWS V14.00,2013-03-19 04:55:00,
2013-03-19 01:00:00,49.0,47.6,29.88,ENE,71,0.0,1.0,95,0.05,,---,0.05,VWS V14.00,2013-03-19 05:00:00,
2013-03-19 01:05:00,49.0,47.6,29.87,ENE,71,0.0,1.0,95,0.05,,---,0.05,VWS V14.00,2013-03-19 05:05:00,
2013-03-19 01:10:00,49.1,47.7,29.87,ENE,71,0.0,1.0,95,0.06,,---,0.06,VWS V14.00,2013-03-19 05:10:00,
2013-03-19 01:15:00,49.1,47.7,29.87,ENE,71,0.0,1.0,95,0.06,,---,0.06,VWS V14.00,2013-03-19 05:15:00,
2013-03-19 01:20:00,49.2,47.8,29.87,ENE,71,0.0,1.0,95,0.06,,---,0.06,VWS V14.00,2013-03-19 05:20:00,
2013-03-19 01:25:00,49.2,47.8,29.87,ENE,71,0.0,3.0,95,0.07,,---,0.07,VWS V14.00,2013-03-19 05:25:00,
2013-03-19 01:30:00,49.3,47.9,29.86,ENE,71,0.0,0.0,95,0.04,,---,0.07,VWS V14.00,2013-03-19 05:30:00,
2013-03-19 01:35:00,49.3,47.9,29.87,ENE,72,0.0,0.0,95,0.04,,---,0.07,VWS V14.00,2013-03-19 05:35:00,
2013-03-19 01:40:00,49.3,47.9,29.87,ENE,71,0.0,0.0,95,0.04,,---,0.07,VWS V14.00,2013-03-19 05:40:00,
2013-03-19 01:45:00,49.3,47.9,29.87,ENE,71,0.0,0.0,95,0.05,,---,0.08,VWS V14.00,2013-03-19 05:45:00,
2013-03-19 01:50:00,49.4,48.0,29.87,ENE,71,0.0,0.0,95,0.05,,---,0.08,VWS V14.00,2013-03-19 05:50:00,
2013-03-19 01:55:00,49.4,48.0,29.87,ENE,71,0.0,1.0,95,0.05,,---,0.08,VWS V14.00,2013-03-19 05:55:00,
2013-03-19 02:00:00,49.4,48.0,29.87,ENE,72,0.0,1.0,95,0.04,,---,0.09,VWS V14.00,2013-03-19 06:00:00,
2013-03-19 02:05:00,49.5,48.1,29.87,ENE,71,0.0,1.0,95,0.04,,---,0.09,VWS V14.00,2013-03-19 06:05:00,
2013-03-19 02:10:00,49.5,48.1,29.86,ENE,71,0.0,1.0,95,0.04,,---,0.09,VWS V14.00,2013-03-19 06:10:00,
2013-03-19 02:15:00,49.5,48.1,29.86,ENE,71,0.0,1.0,95,0.04,,---,0.09,VWS V14.00,2013-03-19 06:15:00,
2013-03-19 02:20:00,49.5,48.1,29.86,ENE,71,0.0,1.0,95,0.05,,---,0.10,VWS V14.00,2013-03-19 06:20:00,
2013-03-19 02:25:00,49.5,48.1,29.86,ENE,71,0.0,1.0,95,0.05,,---,0.10,VWS V14.00,2013-03-19 06:25:00,
2013-03-19 02:30:00,49.6,48.2,29.86,ENE,71,0.0,0.0,95,0.03,,---,0.10,VWS V14.00,2013-03-19 06:30:00,
2013-03-19 02:35:00,49.6,48.2,29.86,ENE,71,0.0,0.0,95,0.03,,---,0.10,VWS V14.00,2013-03-19 06:35:00,
2013-03-19 02:40:00,49.6,48.5,29.86,ENE,71,0.0,1.0,96,0.04,,---,0.11,VWS V14.00,2013-03-19 06:40:00,
2013-03-19 02:45:00,49.7,48.6,29.85,ENE,71,0.0,1.0,96,0.04,,---,0.11,VWS V14.00,2013-03-19 06:45:00,
2013-03-19 02:50:00,49.6,48.5,29.84,ENE,71,0.0,1.0,96,0.04,,---,0.11,VWS V14.00,2013-03-19 06:50:00,
2013-03-19 02:55:00,49.6,48.5,29.84,ENE,71,0.0,1.0,96,0.04,,---,0.11,VWS V14.00,2013-03-19 06:55:00,
2013-03-19 03:00:00,49.7,48.6,29.85,ENE,71,0.0,0.0,96,0.02,,---,0.11,VWS V14.00,2013-03-19 07:00:00,
2013-03-19 03:05:00,49.7,48.6,29.85,ENE,71,0.0,0.0,96,0.03,,---,0.12,VWS V14.00,2013-03-19 07:05:00,
2013-03-19 03:10:00,49.7,48.6,29.85,ENE,71,0.0,0.0,96,0.03,,---,0.12,VWS V14.00,2013-03-19 07:10:00,
2013-03-19 03:29:00,49.9,48.8,29.84,ENE,71,0.0,0.0,96,0.00,,---,0.13,VWS V14.00,2013-03-19 07:29:00,
2013-03-19 03:34:00,50.0,48.9,29.84,ENE,71,0.0,0.0,96,0.04,,---,0.13,VWS V14.00,2013-03-19 07:34:00,
2013-03-19 03:39:00,50.0,48.9,29.84,ENE,71,0.0,0.0,96,0.04,,---,0.13,VWS V14.00,2013-03-19 07:39:00,
2013-03-19 03:44:00,50.0,48.9,29.85,ENE,71,0.0,1.0,96,0.04,,---,0.13,VWS V14.00,2013-03-19 07:44:00,
2013-03-19 03:49:00,50.0,48.9,29.85,ENE,71,0.0,1.0,96,0.05,,---,0.14,VWS V14.00,2013-03-19 07:49:00,
2013-03-19 03:54:00,50.1,49.0,29.84,ENE,67,1.0,2.0,96,0.05,,---,0.14,VWS V14.00,2013-03-19 07:54:00,
2013-03-19 03:59:00,50.1,49.0,29.84,ENE,63,0.0,1.0,96,0.03,,---,0.14,VWS V14.00,2013-03-19 07:59:00,
2013-03-19 04:04:00,50.2,49.1,29.84,ENE,63,0.0,1.0,96,0.03,,---,0.14,VWS V14.00,2013-03-19 08:04:00,
2013-03-19 04:09:00,50.2,49.1,29.84,ENE,63,3.0,3.0,96,0.03,,---,0.14,VWS V14.00,2013-03-19 08:09:00,
2013-03-19 04:14:00,50.1,49.0,29.84,NE,55,0.0,5.0,96,0.04,,---,0.15,VWS V14.00,2013-03-19 08:14:00,
2013-03-19 04:19:00,50.0,48.9,29.84,NE,55,0.0,5.0,96,0.04,,---,0.15,VWS V14.00,2013-03-19 08:19:00,
2013-03-19 04:24:00,50.0,48.9,29.84,NE,55,0.0,5.0,96,0.04,,---,0.15,VWS V14.00,2013-03-19 08:24:00,
2013-03-19 04:29:00,49.9,48.8,29.85,NE,46,0.0,3.0,96,0.01,,---,0.15,VWS V14.00,2013-03-19 08:29:00,
2013-03-19 04:34:00,49.9,48.8,29.85,NE,46,0.0,3.0,96,0.01,,---,0.15,VWS V14.00,2013-03-19 08:34:00,
2013-03-19 04:39:00,49.9,48.8,29.88,NW,317,0.0,7.0,96,0.01,,---,0.15,VWS V14.00,2013-03-19 08:39:00,
2013-03-19 04:44:00,49.8,48.7,29.87,NNW,340,0.0,7.0,96,0.01,,---,0.15,VWS V14.00,2013-03-19 08:44:00,
2013-03-19 04:49:00,49.7,48.6,29.86,NNE,19,0.0,7.0,96,0.02,,---,0.16,VWS V14.00,2013-03-19 08:49:00,
2013-03-19 04:54:00,49.7,48.6,29.86,NNE,18,0.0,7.0,96,0.02,,---,0.16,VWS V14.00,2013-03-19 08:54:00,
2013-03-19 04:59:00,49.6,48.5,29.88,NW,319,4.0,6.0,96,0.02,,---,0.16,VWS V14.00,2013-03-19 08:59:00,
2013-03-19 05:04:00,49.5,48.4,29.87,NNW,343,2.0,6.0,96,0.02,,---,0.16,VWS V14.00,2013-03-19 09:04:00,
2013-03-19 05:09:00,49.3,48.2,29.86,NNW,340,1.0,6.0,96,0.02,,---,0.16,VWS V14.00,2013-03-19 09:09:00,
2013-03-19 05:14:00,49.3,48.2,29.85,NNW,340,0.0,6.0,96,0.02,,---,0.16,VWS V14.00,2013-03-19 09:14:00,
2013-03-19 05:19:00,49.1,48.0,29.83,NE,39,2.0,6.0,96,0.03,,---,0.17,VWS V14.00,2013-03-19 09:19:00,
2013-03-19 05:24:00,49.0,47.9,29.83,NE,44,3.0,6.0,96,0.03,,---,0.17,VWS V14.00,2013-03-19 09:24:00,
2013-03-19 05:29:00,49.0,47.9,29.88,WSW,254,1.0,5.0,96,0.02,,---,0.17,VWS V14.00,2013-03-19 09:29:00,
2013-03-19 05:34:00,49.0,47.9,29.90,NW,316,2.0,6.0,96,0.02,,---,0.17,VWS V14.00,2013-03-19 09:34:00,
2013-03-19 05:39:00,49.0,47.9,29.89,NW,314,0.0,6.0,96,0.02,,---,0.17,VWS V14.00,2013-03-19 09:39:00,
2013-03-19 05:44:00,48.9,47.8,29.89,NNE,13,2.0,7.0,96,0.02,,---,0.17,VWS V14.00,2013-03-19 09:44:00,
2013-03-19 05:49:00,48.8,47.7,29.89,North,355,1.0,7.0,96,0.02,,---,0.17,VWS V14.00,2013-03-19 09:49:00,
2013-03-19 05:54:00,48.6,47.5,29.89,WNW,303,0.0,7.0,96,0.02,,---,0.17,VWS V14.00,2013-03-19 09:54:00,
2013-03-19 05:59:00,48.5,47.4,29.87,WNW,302,0.0,1.0,96,0.01,,---,0.17,VWS V14.00,2013-03-19 09:59:00,
2013-03-19 06:04:00,48.5,47.4,29.87,WNW,299,4.0,4.0,96,0.01,,---,0.17,VWS V14.00,2013-03-19 10:04:00,
2013-03-19 06:09:00,48.4,47.3,29.87,WNW,297,0.0,4.0,96,0.01,,---,0.17,VWS V14.00,2013-03-19 10:09:00,
2013-03-19 06:14:00,48.4,47.3,29.89,NW,321,0.0,5.0,96,0.02,,---,0.18,VWS V14.00,2013-03-19 10:14:00,
2013-03-19 06:19:00,48.4,47.3,29.89,NW,322,4.0,5.0,96,0.02,,---,0.18,VWS V14.00,2013-03-19 10:19:00,
2013-03-19 06:24:00,48.4,47.3,29.90,NNW,331,2.0,5.0,96,0.02,,---,0.18,VWS V14.00,2013-03-19 10:24:00,
2013-03-19 06:29:00,48.3,47.2,29.90,NW,321,0.0,5.0,96,0.01,,---,0.18,VWS V14.00,2013-03-19 10:29:00,
2013-03-19 06:34:00,48.2,47.1,29.90,NW,319,0.0,5.0,96,0.01,,---,0.18,VWS V14.00,2013-03-19 10:34:00,
2013-03-19 06:39:00,48.2,47.1,29.91,NW,317,1.0,5.0,96,0.01,,---,0.18,VWS V14.00,2013-03-19 10:39:00,
2013-03-19 06:44:00,48.1,47.0,29.91,NW,316,2.0,5.0,96,0.01,,---,0.18,VWS V14.00,2013-03-19 10:44:00,
2013-03-19 06:49:00,48.1,47.0,29.91,NW,316,1.0,5.0,96,0.01,,---,0.18,VWS V14.00,2013-03-19 10:49:00,
2013-03-19 06:54:00,48.1,47.0,29.91,NW,316,0.0,5.0,96,0.01,,---,0.18,VWS V14.00,2013-03-19 10:54:00,
2013-03-19 06:59:00,48.1,47.0,29.91,NW,316,1.0,2.0,96,0.01,,---,0.18,VWS V14.00,2013-03-19 10:59:00,
2013-03-19 07:04:00,48.1,47.0,29.91,NW,316,4.0,5.0,96,0.02,,---,0.19,VWS V14.00,2013-03-19 11:04:00,
2013-03-19 07:09:00,48.0,46.9,29.91,NNW,328,0.0,8.0,96,0.02,,---,0.19,VWS V14.00,2013-03-19 11:09:00,
2013-03-19 07:14:00,47.9,46.8,29.91,NNW,329,0.0,8.0,96,0.02,,---,0.19,VWS V14.00,2013-03-19 11:14:00,
2013-03-19 07:19:00,47.9,46.8,29.90,NW,313,1.0,8.0,96,0.02,,---,0.19,VWS V14.00,2013-03-19 11:19:00,
2013-03-19 07:24:00,47.8,46.7,29.90,NW,313,0.0,8.0,96,0.02,,---,0.19,VWS V14.00,2013-03-19 11:24:00,
2013-03-19 07:29:00,47.8,46.7,29.90,NNW,327,0.0,2.0,96,0.01,,---,0.19,VWS V14.00,2013-03-19 11:29:00,
2013-03-19 07:34:00,47.8,46.7,29.90,NNW,340,2.0,6.0,96,0.01,,---,0.19,VWS V14.00,2013-03-19 11:34:00,
2013-03-19 07:39:00,47.7,46.6,29.91,NW,325,1.0,6.0,96,0.01,,---,0.19,VWS V14.00,2013-03-19 11:39:00,
2013-03-19 07:44:00,47.7,46.6,29.92,NW,317,0.0,6.0,96,0.01,,---,0.19,VWS V14.00,2013-03-19 11:44:00,
2013-03-19 07:49:00,47.6,46.5,29.92,NW,315,4.0,7.0,96,0.01,,---,0.19,VWS V14.00,2013-03-19 11:49:00,
2013-03-19 07:54:00,47.5,46.4,29.92,NW,319,4.0,9.0,96,0.01,,---,0.19,VWS V14.00,2013-03-19 11:54:00,
2013-03-19 07:59:00,47.4,46.3,29.92,NW,305,1.0,7.0,96,0.02,,---,0.20,VWS V14.00,2013-03-19 11:59:00,
2013-03-19 08:04:00,47.4,46.3,29.92,NW,313,2.0,10.0,96,0.02,,---,0.20,VWS V14.00,2013-03-19 12:04:00,
2013-03-19 08:09:00,47.4,46.3,29.92,NW,309,0.0,10.0,96,0.02,,---,0.20,VWS V14.00,2013-03-19 12:09:00,
2013-03-19 08:14:00,47.5,46.4,29.92,WNW,298,0.0,10.0,96,0.02,,---,0.20,VWS V14.00,2013-03-19 12:14:00,
2013-03-19 08:19:00,47.5,46.4,29.92,NW,319,0.0,10.0,96,0.02,,---,0.20,VWS V14.00,2013-03-19 12:19:00,
2013-03-19 08:24:00,47.6,46.5,29.93,NW,317,2.0,10.0,96,0.02,,---,0.20,VWS V14.00,2013-03-19 12:24:00,
2013-03-19 08:29:00,47.5,46.4,29.93,NW,321,4.0,7.0,96,0.01,,---,0.20,VWS V14.00,2013-03-19 12:29:00,
2013-03-19 08:34:00,47.4,46.3,29.93,NW,323,2.0,7.0,96,0.01,,---,0.20,VWS V14.00,2013-03-19 12:34:00,
2013-03-19 08:39:00,47.4,46.3,29.94,NNW,346,1.0,7.0,96,0.01,,---,0.20,VWS V14.00,2013-03-19 12:39:00,
2013-03-19 08:44:00,47.5,46.4,29.94,NW,315,2.0,7.0,96,0.01,,---,0.20,VWS V14.00,2013-03-19 12:44:00,
2013-03-19 08:49:00,47.6,46.5,29.95,NNW,339,2.0,10.0,96,0.02,,---,0.21,VWS V14.00,2013-03-19 12:49:00,
2013-03-19 08:54:00,47.6,46.5,29.95,North,355,5.0,10.0,96,0.02,,---,0.21,VWS V14.00,2013-03-19 12:54:00,
2013-03-19 08:59:00,47.8,46.7,29.95,NNW,331,5.0,6.0,96,0.02,,---,0.21,VWS V14.00,2013-03-19 12:59:00,
2013-03-19 09:04:00,48.0,46.9,29.95,NW,319,6.0,9.0,96,0.02,,---,0.21,VWS V14.00,2013-03-19 13:04:00,
2013-03-19 09:09:00,48.1,47.0,29.95,NW,317,5.0,9.0,96,0.02,,---,0.21,VWS V14.00,2013-03-19 13:09:00,
2013-03-19 09:14:00,48.1,47.0,29.95,NW,311,6.0,9.0,96,0.02,,---,0.21,VWS V14.00,2013-03-19 13:14:00,
2013-03-19 09:19:00,48.3,47.2,29.95,NW,321,5.0,11.0,96,0.02,,---,0.21,VWS V14.00,2013-03-19 13:19:00,
2013-03-19 09:24:00,48.5,47.4,29.95,NNW,340,2.0,11.0,96,0.02,,---,0.21,VWS V14.00,2013-03-19 13:24:00,
2013-03-19 09:29:00,48.6,47.5,29.95,WNW,291,4.0,6.0,96,0.01,,---,0.21,VWS V14.00,2013-03-19 13:29:00,
2013-03-19 09:34:00,48.8,47.4,29.96,North,350,7.0,13.0,95,0.01,,---,0.21,VWS V14.00,2013-03-19 13:34:00,
2013-03-19 09:39:00,48.9,47.5,29.96,NNW,347,0.0,13.0,95,0.01,,---,0.21,VWS V14.00,2013-03-19 13:39:00,
2013-03-19 09:44:00,49.2,47.8,29.96,North,5,4.0,13.0,95,0.01,,---,0.21,VWS V14.00,2013-03-19 13:44:00,
2013-03-19 09:49:00,49.4,48.0,29.96,NW,323,0.0,13.0,95,0.01,,---,0.21,VWS V14.00,2013-03-19 13:49:00,
2013-03-19 09:54:00,49.7,48.3,29.96,North,360,1.0,13.0,95,0.02,,---,0.22,VWS V14.00,2013-03-19 13:54:00,
2013-03-19 09:59:00,50.0,48.3,29.97,NW,309,4.0,8.0,94,0.01,,---,0.22,VWS V14.00,2013-03-19 13:59:00,
2013-03-19 10:04:00,50.2,48.5,29.97,WNW,282,1.0,11.0,94,0.01,,---,0.22,VWS V14.00,2013-03-19 14:04:00,
2013-03-19 10:09:00,50.5,48.6,29.97,NW,308,1.0,11.0,93,0.01,,---,0.22,VWS V14.00,2013-03-19 14:09:00,
2013-03-19 10:14:00,51.2,49.2,29.97,NNW,341,5.0,11.0,93,0.02,,---,0.23,VWS V14.00,2013-03-19 14:14:00,
2013-03-19 10:19:00,51.7,49.5,29.97,NNW,334,4.0,11.0,92,0.03,,---,0.24,VWS V14.00,2013-03-19 14:19:00,
2013-03-19 10:24:00,52.1,49.3,29.97,NNW,331,4.0,11.0,90,0.05,,---,0.26,VWS V14.00,2013-03-19 14:24:00,
2013-03-19 10:29:00,52.6,49.5,29.97,NNE,18,1.0,8.0,89,0.05,,---,0.26,VWS V14.00,2013-03-19 14:29:00,
2013-03-19 10:34:00,53.2,50.0,29.97,NNW,340,2.0,8.0,89,0.05,,---,0.26,VWS V14.00,2013-03-19 14:34:00,
2013-03-19 10:39:00,53.9,49.8,29.98,NNW,348,0.0,9.0,86,0.05,,---,0.26,VWS V14.00,2013-03-19 14:39:00,
2013-03-19 10:44:00,54.3,49.9,29.98,NNW,335,5.0,10.0,85,0.05,,---,0.26,VWS V14.00,2013-03-19 14:44:00,
2013-03-19 10:49:00,54.7,50.0,29.97,NNW,332,6.0,10.0,84,0.05,,---,0.26,VWS V14.00,2013-03-19 14:49:00,
2013-03-19 10:54:00,55.1,49.7,29.97,NW,311,1.0,10.0,82,0.05,,---,0.26,VWS V14.00,2013-03-19 14:54:00,
2013-03-19 10:59:00,55.5,49.8,29.97,NNW,346,4.0,10.0,81,0.04,,---,0.26,VWS V14.00,2013-03-19 14:59:00,
2013-03-19 11:04:00,55.9,50.2,29.97,NW,324,1.0,10.0,81,0.04,,---,0.26,VWS V14.00,2013-03-19 15:04:00,
2013-03-19 11:09:00,56.4,50.3,29.97,NNW,330,2.0,10.0,80,0.04,,---,0.26,VWS V14.00,2013-03-19 15:09:00,
2013-03-19 11:14:00,56.9,50.1,29.97,NW,323,0.0,10.0,78,0.04,,---,0.26,VWS V14.00,2013-03-19 15:14:00,
2013-03-19 11:19:00,57.3,50.2,29.97,North,9,2.0,10.0,77,0.04,,---,0.26,VWS V14.00,2013-03-19 15:19:00,
2013-03-19 11:24:00,57.7,50.2,29.97,North,360,6.0,10.0,76,0.04,,---,0.26,VWS V14.00,2013-03-19 15:24:00,
2013-03-19 11:29:00,58.3,50.4,29.97,WNW,296,1.0,4.0,75,0.00,,---,0.26,VWS V14.00,2013-03-19 15:29:00,
2013-03-19 11:34:00,59.0,51.1,29.97,West,279,2.0,10.0,75,0.00,,---,0.26,VWS V14.00,2013-03-19 15:34:00,
2013-03-19 11:39:00,59.5,51.2,29.97,NW,304,2.0,10.0,74,0.00,,---,0.26,VWS V14.00,2013-03-19 15:39:00,
2013-03-19 11:44:00,60.1,50.7,29.97,WNW,292,2.0,10.0,71,0.00,,---,0.26,VWS V14.00,2013-03-19 15:44:00,
2013-03-19 11:49:00,60.4,50.6,29.97,North,349,1.0,10.0,70,0.00,,---,0.26,VWS V14.00,2013-03-19 15:49:00,
2013-03-19 11:54:00,60.7,50.5,29.97,West,281,1.0,10.0,69,0.00,,---,0.26,VWS V14.00,2013-03-19 15:54:00,
2013-03-19 11:59:00,61.2,50.2,29.97,NNW,332,1.0,8.0,67,0.00,,---,0.26,VWS V14.00,2013-03-19 15:59:00,
2013-03-19 12:04:00,61.6,49.7,29.97,West,259,4.0,10.0,65,0.00,,---,0.26,VWS V14.00,2013-03-19 16:04:00,
2013-03-19 12:09:00,62.1,49.4,29.97,WSW,250,0.0,10.0,63,0.00,,---,0.26,VWS V14.00,2013-03-19 16:09:00,
2013-03-19 12:14:00,62.3,48.2,29.97,North,5,0.0,10.0,60,0.00,,---,0.26,VWS V14.00,2013-03-19 16:14:00,
2013-03-19 12:19:00,62.4,48.8,29.97,SW,234,4.0,10.0,61,0.00,,---,0.26,VWS V14.00,2013-03-19 16:19:00,
2013-03-19 12:24:00,62.9,47.9,29.97,West,279,0.0,10.0,58,0.00,,---,0.26,VWS V14.00,2013-03-19 16:24:00,
2013-03-19 12:29:00,63.6,47.2,29.97,NW,324,1.0,7.0,55,0.00,,---,0.26,VWS V14.00,2013-03-19 16:29:00,
2013-03-19 12:34:00,63.9,46.5,29.97,North,360,1.0,10.0,53,0.00,,---,0.26,VWS V14.00,2013-03-19 16:34:00,
2013-03-19 12:39:00,64.2,46.2,29.97,WSW,245,1.0,10.0,52,0.00,,---,0.26,VWS V14.00,2013-03-19 16:39:00,
2013-03-19 12:44:00,64.6,45.6,29.97,WNW,282,2.0,10.0,50,0.00,,---,0.26,VWS V14.00,2013-03-19 16:44:00,
2013-03-19 12:49:00,65.1,43.8,29.97,NE,42,6.0,10.0,46,0.00,,---,0.26,VWS V14.00,2013-03-19 16:49:00,
2013-03-19 12:54:00,65.3,44.0,29.97,NNE,24,5.0,10.0,46,0.00,,---,0.26,VWS V14.00,2013-03-19 16:54:00,
2013-03-19 12:59:00,65.6,44.3,29.97,NNW,328,6.0,7.0,46,0.00,,---,0.26,VWS V14.00,2013-03-19 16:59:00,
2013-03-19 13:04:00,65.7,44.4,29.96,NNW,327,1.0,8.0,46,0.00,,---,0.26,VWS V14.00,2013-03-19 17:04:00,
2013-03-19 13:09:00,66.1,43.6,29.96,NW,319,1.0,10.0,44,0.00,,---,0.26,VWS V14.00,2013-03-19 17:09:00,
2013-03-19 13:14:00,66.6,43.4,29.96,NNW,333,4.0,10.0,43,0.00,,---,0.26,VWS V14.00,2013-03-19 17:14:00,
2013-03-19 13:19:00,67.0,45.0,29.96,North,5,4.0,10.0,45,0.00,,---,0.26,VWS V14.00,2013-03-19 17:19:00,
2013-03-19 13:24:00,67.0,43.2,29.95,NE,41,1.0,10.0,42,0.00,,---,0.26,VWS V14.00,2013-03-19 17:24:00,
2013-03-19 13:29:00,67.3,40.8,29.95,NNE,13,5.0,7.0,38,0.00,,---,0.26,VWS V14.00,2013-03-19 17:29:00,
2013-03-19 13:34:00,67.4,41.6,29.96,West,269,2.0,9.0,39,0.00,,---,0.26,VWS V14.00,2013-03-19 17:34:00,
2013-03-19 13:39:00,67.9,40.7,29.95,NNW,338,5.0,13.0,37,0.00,,---,0.26,VWS V14.00,2013-03-19 17:39:00,
2013-03-19 13:44:00,68.4,41.1,29.95,NNE,15,6.0,17.0,37,0.00,,---,0.26,VWS V14.00,2013-03-19 17:44:00,
2013-03-19 13:49:00,68.6,39.9,29.95,NNW,341,1.0,17.0,35,0.00,,---,0.26,VWS V14.00,2013-03-19 17:49:00,
2013-03-19 13:54:00,69.0,41.7,29.95,NW,304,2.0,17.0,37,0.00,,---,0.26,VWS V14.00,2013-03-19 17:54:00,
2013-03-19 13:59:00,69.5,39.9,29.95,NNW,348,6.0,8.0,34,0.00,,---,0.26,VWS V14.00,2013-03-19 17:59:00,
2013-03-19 14:04:00,69.5,39.9,29.95,North,355,6.0,9.0,34,0.00,,---,0.26,VWS V14.00,2013-03-19 18:04:00,
2013-03-19 14:09:00,69.1,38.8,29.95,NE,36,5.0,9.0,33,0.00,,---,0.26,VWS V14.00,2013-03-19 18:09:00,
2013-03-19 14:14:00,69.0,37.9,29.94,West,281,0.0,9.0,32,0.00,,---,0.26,VWS V14.00,2013-03-19 18:14:00,
2013-03-19 14:19:00,69.7,36.9,29.94,NNE,13,8.0,10.0,30,0.00,,---,0.26,VWS V14.00,2013-03-19 18:19:00,
2013-03-19 14:24:00,69.8,37.0,29.94,NNW,330,4.0,10.0,30,0.00,,---,0.26,VWS V14.00,2013-03-19 18:24:00,
2013-03-19 14:29:00,70.0,37.2,29.94,NNE,28,12.0,12.0,30,0.00,,---,0.26,VWS V14.00,2013-03-19 18:29:00,
2013-03-19 14:34:00,69.9,35.3,29.94,NNE,24,7.0,13.0,28,0.00,,---,0.26,VWS V14.00,2013-03-19 18:34:00,
2013-03-19 14:39:00,69.7,36.9,29.94,NW,315,5.0,13.0,30,0.00,,---,0.26,VWS V14.00,2013-03-19 18:39:00,
2013-03-19 14:44:00,69.7,36.0,29.94,WNW,294,5.0,13.0,29,0.00,,---,0.26,VWS V14.00,2013-03-19 18:44:00,
2013-03-19 14:49:00,69.9,37.9,29.93,North,360,0.0,13.0,31,0.00,,---,0.26,VWS V14.00,2013-03-19 18:49:00,
2013-03-19 14:54:00,70.4,36.7,29.93,NNE,20,2.0,13.0,29,0.00,,---,0.26,VWS V14.00,2013-03-19 18:54:00,
2013-03-19 14:59:00,70.3,36.6,29.93,NNW,348,2.0,12.0,29,0.00,,---,0.26,VWS V14.00,2013-03-19 18:59:00,
2013-03-19 15:04:00,70.4,36.7,29.93,North,5,7.0,12.0,29,0.00,,---,0.26,VWS V14.00,2013-03-19 19:04:00,
2013-03-19 15:09:00,70.4,36.7,29.93,West,265,2.0,12.0,29,0.00,,---,0.26,VWS V14.00,2013-03-19 19:09:00,
2013-03-19 15:14:00,71.0,38.0,29.93,NE,36,8.0,12.0,30,0.00,,---,0.26,VWS V14.00,2013-03-19 19:14:00,
2013-03-19 15:19:00,71.0,37.2,29.93,WNW,285,2.0,12.0,29,0.00,,---,0.26,VWS V14.00,2013-03-19 19:19:00,
2013-03-19 15:24:00,71.2,38.2,29.93,NW,309,4.0,13.0,30,0.00,,---,0.26,VWS V14.00,2013-03-19 19:24:00,
2013-03-19 15:29:00,71.4,37.5,29.92,SW,214,7.0,7.0,29,0.00,,---,0.26,VWS V14.00,2013-03-19 19:29:00,
2013-03-19 15:34:00,71.3,33.7,29.92,NNW,327,2.0,8.0,25,0.00,,---,0.26,VWS V14.00,2013-03-19 19:34:00,
2013-03-19 15:39:00,71.6,34.9,29.93,West,277,1.0,8.0,26,0.00,,---,0.26,VWS V14.00,2013-03-19 19:39:00,
2013-03-19 15:44:00,71.8,34.1,29.92,North,355,5.0,9.0,25,0.00,,---,0.26,VWS V14.00,2013-03-19 19:44:00,
2013-03-19 15:49:00,71.7,32.0,29.93,NW,311,1.0,10.0,23,0.00,,---,0.26,VWS V14.00,2013-03-19 19:49:00,
2013-03-19 15:54:00,71.5,30.7,29.93,NNW,329,7.0,10.0,22,0.00,,---,0.26,VWS V14.00,2013-03-19 19:54:00,
2013-03-19 15:59:00,71.4,30.6,29.93,NNW,332,2.0,5.0,22,0.00,,---,0.26,VWS V14.00,2013-03-19 19:59:00,
2013-03-19 16:04:00,71.6,29.6,29.93,NW,318,2.0,8.0,21,0.00,,---,0.26,VWS V14.00,2013-03-19 20:04:00,
2013-03-19 16:09:00,71.5,29.5,29.93,NNW,332,4.0,8.0,21,0.00,,---,0.26,VWS V14.00,2013-03-19 20:09:00,
2013-03-19 16:14:00,71.5,30.7,29.93,North,5,4.0,8.0,22,0.00,,---,0.26,VWS V14.00,2013-03-19 20:14:00,
2013-03-19 16:19:00,71.7,34.0,29.93,NNW,333,2.0,8.0,25,0.00,,---,0.26,VWS V14.00,2013-03-19 20:19:00,
2013-03-19 16:24:00,71.9,32.1,29.93,North,5,1.0,8.0,23,0.00,,---,0.26,VWS V14.00,2013-03-19 20:24:00,
2013-03-19 16:29:00,71.8,33.1,29.93,NW,308,0.0,5.0,24,0.00,,---,0.26,VWS V14.00,2013-03-19 20:29:00,
2013-03-19 16:34:00,71.9,28.7,29.93,North,9,2.0,13.0,20,0.00,,---,0.26,VWS V14.00,2013-03-19 20:34:00,
2013-03-19 16:39:00,71.5,30.7,29.93,West,278,2.0,13.0,22,0.00,,---,0.26,VWS V14.00,2013-03-19 20:39:00,
2013-03-19 16:44:00,71.7,28.5,29.93,NW,315,9.0,13.0,20,0.00,,---,0.26,VWS V14.00,2013-03-19 20:44:00,
2013-03-19 16:49:00,71.7,29.7,29.94,North,355,2.0,13.0,21,0.00,,---,0.26,VWS V14.00,2013-03-19 20:49:00,
2013-03-19 16:54:00,71.7,30.9,29.93,West,279,2.0,13.0,22,0.00,,---,0.26,VWS V14.00,2013-03-19 20:54:00,
2013-03-19 16:59:00,71.8,29.8,29.94,NW,312,1.0,5.0,21,0.00,,---,0.26,VWS V14.00,2013-03-19 20:59:00,
2013-03-19 17:04:00,71.7,29.7,29.94,WSW,240,5.0,9.0,21,0.00,,---,0.26,VWS V14.00,2013-03-19 21:04:00,
2013-03-19 17:09:00,71.6,28.4,29.93,NW,315,4.0,11.0,20,0.00,,---,0.26,VWS V14.00,2013-03-19 21:09:00,
2013-03-19 17:14:00,71.6,29.6,29.93,West,281,0.0,11.0,21,0.00,,---,0.26,VWS V14.00,2013-03-19 21:14:00,
2013-03-19 17:19:00,71.7,29.7,29.93,North,5,1.0,11.0,21,0.00,,---,0.26,VWS V14.00,2013-03-19 21:19:00,
2013-03-19 17:24:00,71.6,29.6,29.93,NNE,19,3.0,11.0,21,0.00,,---,0.26,VWS V14.00,2013-03-19 21:24:00,
2013-03-19 17:29:00,71.3,28.2,29.94,North,360,4.0,8.0,20,0.00,,---,0.26,VWS V14.00,2013-03-19 21:29:00,
2013-03-19 17:34:00,71.2,25.6,29.94,NNW,333,1.0,9.0,18,0.00,,---,0.26,VWS V14.00,2013-03-19 21:34:00,
2013-03-19 17:39:00,71.1,25.5,29.94,NW,306,2.0,11.0,18,0.00,,---,0.26,VWS V14.00,2013-03-19 21:39:00,
2013-03-19 17:44:00,70.7,23.8,29.94,NNE,21,3.0,16.0,17,0.00,,---,0.26,VWS V14.00,2013-03-19 21:44:00,
2013-03-19 17:49:00,70.4,23.5,29.94,NNE,23,4.0,16.0,17,0.00,,---,0.26,VWS V14.00,2013-03-19 21:49:00,
2013-03-19 17:54:00,70.2,23.4,29.94,NNW,343,7.0,16.0,17,0.00,,---,0.26,VWS V14.00,2013-03-19 21:54:00,
2013-03-19 17:59:00,70.0,23.2,29.94,NNE,22,1.0,7.0,17,0.00,,---,0.26,VWS V14.00,2013-03-19 21:59:00,
2013-03-19 18:04:00,70.0,24.6,29.94,North,355,2.0,9.0,18,0.00,,---,0.26,VWS V14.00,2013-03-19 22:04:00,
2013-03-19 18:09:00,70.0,24.6,29.94,North,355,4.0,9.0,18,0.00,,---,0.26,VWS V14.00,2013-03-19 22:09:00,
2013-03-19 18:14:00,69.8,24.4,29.95,NNW,342,4.0,9.0,18,0.00,,---,0.26,VWS V14.00,2013-03-19 22:14:00,
2013-03-19 18:19:00,69.7,25.6,29.95,North,5,5.0,9.0,19,0.00,,---,0.26,VWS V14.00,2013-03-19 22:19:00,
2013-03-19 18:24:00,69.4,25.4,29.95,NNW,342,4.0,9.0,19,0.00,,---,0.26,VWS V14.00,2013-03-19 22:24:00,
2013-03-19 18:29:00,69.1,23.9,29.95,NNW,333,5.0,9.0,18,0.00,,---,0.26,VWS V14.00,2013-03-19 22:29:00,
2013-03-19 18:34:00,68.9,26.2,29.95,WNW,290,1.0,9.0,20,0.00,,---,0.26,VWS V14.00,2013-03-19 22:34:00,
2013-03-19 18:39:00,68.6,24.7,29.95,NNE,17,2.0,9.0,19,0.00,,---,0.26,VWS V14.00,2013-03-19 22:39:00,
2013-03-19 18:44:00,68.4,24.6,29.96,NNW,330,5.0,9.0,19,0.00,,---,0.26,VWS V14.00,2013-03-19 22:44:00,
2013-03-19 18:49:00,68.2,25.6,29.96,NW,313,0.0,9.0,20,0.00,,---,0.26,VWS V14.00,2013-03-19 22:49:00,
2013-03-19 18:54:00,67.8,25.3,29.96,NNW,342,0.0,9.0,20,0.00,,---,0.26,VWS V14.00,2013-03-19 22:54:00,
2013-03-19 18:59:00,67.4,25.0,29.96,NNW,348,2.0,6.0,20,0.00,,---,0.26,VWS V14.00,2013-03-19 22:59:00,
2013-03-19 19:04:00,67.1,25.9,29.96,NNW,327,1.0,6.0,21,0.00,,---,0.26,VWS V14.00,2013-03-19 23:04:00,
2013-03-19 19:09:00,66.8,26.8,29.96,NW,321,0.0,8.0,22,0.00,,---,0.26,VWS V14.00,2013-03-19 23:09:00,
2013-03-19 19:14:00,66.5,27.6,29.97,NNW,346,7.0,8.0,23,0.00,,---,0.26,VWS V14.00,2013-03-19 23:14:00,
2013-03-19 19:19:00,66.2,27.3,29.97,NW,311,1.0,8.0,23,0.00,,---,0.26,VWS V14.00,2013-03-19 23:19:00,
2013-03-19 19:24:00,65.8,27.0,29.97,WNW,294,1.0,8.0,23,0.00,,---,0.26,VWS V14.00,2013-03-19 23:24:00,
2013-03-19 19:29:00,65.4,27.7,29.97,NW,308,4.0,4.0,24,0.00,,---,0.26,VWS V14.00,2013-03-19 23:29:00,
2013-03-19 19:34:00,65.0,28.4,29.97,NW,305,0.0,7.0,25,0.00,,---,0.26,VWS V14.00,2013-03-19 23:34:00,
2013-03-19 19:39:00,64.7,28.1,29.98,North,349,1.0,7.0,25,0.00,,---,0.26,VWS V14.00,2013-03-19 23:39:00,
2013-03-19 19:44:00,64.2,29.5,29.98,NNE,16,3.0,7.0,27,0.00,,---,0.26,VWS V14.00,2013-03-19 23:44:00,
2013-03-19 19:49:00,63.8,29.2,29.98,North,5,0.0,7.0,27,0.00,,---,0.26,VWS V14.00,2013-03-19 23:49:00,
2013-03-19 19:54:00,63.5,29.8,29.98,North,360,3.0,7.0,28,0.00,,---,0.26,VWS V14.00,2013-03-19 23:54:00,
2013-03-19 19:59:00,63.1,29.5,29.99,North,350,0.0,2.0,28,0.00,,---,0.26,VWS V14.00,2013-03-19 23:59:00,
2013-03-19 20:04:00,62.7,29.1,29.99,North,351,2.0,4.0,28,0.00,,---,0.26,VWS V14.00,2013-03-20 00:04:00,
2013-03-19 20:09:00,62.4,29.8,29.99,North,355,0.0,6.0,29,0.00,,---,0.26,VWS V14.00,2013-03-20 00:09:00,
2013-03-19 20:14:00,62.0,30.2,29.98,North,355,0.0,6.0,30,0.00,,---,0.26,VWS V14.00,2013-03-20 00:14:00,
2013-03-19 20:19:00,61.5,30.6,29.99,North,355,0.0,6.0,31,0.00,,---,0.26,VWS V14.00,2013-03-20 00:19:00,
2013-03-19 20:24:00,61.0,30.2,29.99,North,355,0.0,6.0,31,0.00,,---,0.26,VWS V14.00,2013-03-20 00:24:00,
2013-03-19 20:29:00,60.5,30.5,29.99,North,355,0.0,0.0,32,0.00,,---,0.26,VWS V14.00,2013-03-20 00:29:00,
2013-03-19 20:34:00,60.1,29.4,29.99,North,355,0.0,1.0,31,0.00,,---,0.26,VWS V14.00,2013-03-20 00:34:00,
2013-03-19 20:39:00,59.8,30.7,29.99,North,355,0.0,1.0,33,0.00,,---,0.26,VWS V14.00,2013-03-20 00:39:00,
2013-03-19 20:44:00,59.4,30.3,29.99,North,355,1.0,2.0,33,0.00,,---,0.26,VWS V14.00,2013-03-20 00:44:00,
2013-03-19 20:49:00,59.1,30.0,29.99,North,355,0.0,4.0,33,0.00,,---,0.26,VWS V14.00,2013-03-20 00:49:00,
2013-03-19 20:54:00,58.9,29.1,29.99,North,355,2.0,4.0,32,0.00,,---,0.26,VWS V14.00,2013-03-20 00:54:00,
2013-03-19 20:59:00,58.9,29.9,30.00,NNW,346,0.0,2.0,33,0.00,,---,0.26,VWS V14.00,2013-03-20 00:59:00,
2013-03-19 21:04:00,58.9,29.9,30.00,NNW,348,0.0,5.0,33,0.00,,---,0.26,VWS V14.00,2013-03-20 01:04:00,
2013-03-19 21:09:00,58.9,29.9,30.00,NNW,348,0.0,5.0,33,0.00,,---,0.26,VWS V14.00,2013-03-20 01:09:00,
2013-03-19 21:14:00,58.7,29.7,30.00,NNW,348,0.0,0.0,33,0.00,,---,0.26,VWS V14.00,2013-03-20 01:14:00,
2013-03-19 21:19:00,58.5,29.5,30.00,NNW,348,0.0,1.0,33,0.00,,---,0.26,VWS V14.00,2013-03-20 01:19:00,
2013-03-19 21:24:00,58.3,30.1,30.00,NNW,348,0.0,1.0,34,0.00,,---,0.26,VWS V14.00,2013-03-20 01:24:00,
2013-03-19 21:29:00,57.9,29.7,30.01,NNW,348,0.0,1.0,34,0.00,,---,0.26,VWS V14.00,2013-03-20 01:29:00,
2013-03-19 21:34:00,57.7,29.5,30.00,NNW,348,0.0,2.0,34,0.00,,---,0.26,VWS V14.00,2013-03-20 01:34:00,
2013-03-19 21:39:00,57.4,29.3,30.00,NNW,348,0.0,2.0,34,0.00,,---,0.26,VWS V14.00,2013-03-20 01:39:00,
2013-03-19 21:44:00,57.2,30.5,30.00,NNW,348,0.0,2.0,36,0.00,,---,0.26,VWS V14.00,2013-03-20 01:44:00,
2013-03-19 21:49:00,56.9,30.2,30.01,NNW,348,0.0,2.0,36,0.00,,---,0.26,VWS V14.00,2013-03-20 01:49:00,
2013-03-19 21:54:00,56.7,30.1,30.01,NNW,348,0.0,2.0,36,0.00,,---,0.26,VWS V14.00,2013-03-20 01:54:00,
2013-03-19 21:59:00,56.3,30.4,30.01,NNW,348,0.0,0.0,37,0.00,,---,0.26,VWS V14.00,2013-03-20 01:59:00,
2013-03-19 22:04:00,55.9,30.7,30.01,NNW,348,0.0,0.0,38,0.00,,---,0.26,VWS V14.00,2013-03-20 02:04:00,
2013-03-19 22:09:00,55.4,30.9,30.01,NNW,348,0.0,0.0,39,0.00,,---,0.26,VWS V14.00,2013-03-20 02:09:00,
2013-03-19 22:14:00,54.9,31.0,30.01,NNW,348,0.0,0.0,40,0.00,,---,0.26,VWS V14.00,2013-03-20 02:14:00,
2013-03-19 22:19:00,54.4,30.6,30.01,NNW,348,0.0,2.0,40,0.00,,---,0.26,VWS V14.00,2013-03-20 02:19:00,
2013-03-19 22:24:00,54.1,30.9,30.01,NNW,348,0.0,2.0,41,0.00,,---,0.26,VWS V14.00,2013-03-20 02:24:00,
2013-03-19 22:29:00,53.9,30.1,30.01,NNW,348,0.0,2.0,40,0.00,,---,0.26,VWS V14.00,2013-03-20 02:29:00,
2013-03-19 22:34:00,53.9,30.8,30.01,NNW,348,2.0,2.0,41,0.00,,---,0.26,VWS V14.00,2013-03-20 02:34:00,
2013-03-19 22:39:00,54.0,31.5,30.01,NNW,348,0.0,2.0,42,0.00,,---,0.26,VWS V14.00,2013-03-20 02:39:00,
2013-03-19 22:44:00,54.0,31.5,30.02,NNW,348,0.0,2.0,42,0.00,,---,0.26,VWS V14.00,2013-03-20 02:44:00,
2013-03-19 22:49:00,53.9,31.4,30.02,NNW,348,0.0,2.0,42,0.00,,---,0.26,VWS V14.00,2013-03-20 02:49:00,
2013-03-19 22:54:00,53.9,31.4,30.02,NNW,348,0.0,2.0,42,0.00,,---,0.26,VWS V14.00,2013-03-20 02:54:00,
2013-03-19 22:59:00,53.8,31.9,30.02,NNW,348,0.0,0.0,43,0.00,,---,0.26,VWS V14.00,2013-03-20 02:59:00,
2013-03-19 23:04:00,53.8,31.9,30.02,NNW,348,0.0,1.0,43,0.00,,---,0.26,VWS V14.00,2013-03-20 03:04:00,
2013-03-19 23:09:00,53.7,31.8,30.02,NNW,348,0.0,1.0,43,0.00,,---,0.26,VWS V14.00,2013-03-20 03:09:00,
2013-03-19 23:14:00,53.6,32.2,30.02,NNW,348,0.0,1.0,44,0.00,,---,0.26,VWS V14.00,2013-03-20 03:14:00,
2013-03-19 23:19:00,53.4,32.0,30.02,NNW,348,0.0,1.0,44,0.00,,---,0.26,VWS V14.00,2013-03-20 03:19:00,
2013-03-19 23:24:00,53.2,31.9,30.02,NNW,348,0.0,2.0,44,0.00,,---,0.26,VWS V14.00,2013-03-20 03:24:00,
2013-03-19 23:29:00,53.1,31.8,30.02,NNW,348,0.0,0.0,44,0.00,,---,0.26,VWS V14.00,2013-03-20 03:29:00,
2013-03-19 23:34:00,53.0,32.2,30.02,NNW,348,0.0,0.0,45,0.00,,---,0.26,VWS V14.00,2013-03-20 03:34:00,
2013-03-19 23:39:00,52.9,31.6,30.02,NNW,348,0.0,2.0,44,0.00,,---,0.26,VWS V14.00,2013-03-20 03:39:00,
2013-03-19 23:44:00,52.9,31.6,30.02,NNW,348,1.0,2.0,44,0.00,,---,0.26,VWS V14.00,2013-03-20 03:44:00,
2013-03-19 23:49:00,52.8,32.1,30.02,NNW,348,0.0,2.0,45,0.00,,---,0.26,VWS V14.00,2013-03-20 03:49:00,
2013-03-19 23:54:00,52.5,31.8,30.02,NNW,348,0.0,2.0,45,0.00,,---,0.26,VWS V14.00,2013-03-20 03:54:00,
2013-03-19 23:59:00,52.2,31.5,30.01,NNW,348,0.0,0.0,45,0.00,,---,0.00,VWS V14.00,2013-03-20 03:59:00,